COSMOS 1553

Satellite information

Favourite Embed

Satellite Type and Status

PAYLOADIN ORBIT

Key statistics

Satellite COSMOS 1553 at a glance.

Uptime

15026

Days in orbit

Revolutions

≈ 13.8

Per day

Orbit

LEO

Low Earth Orbit

Inclination

82.9

Latest

Satellite identification and parameters

Extended collection of information and parameters for COSMOS 1553.

Object identification

Identified? True

Debris? False

Object name: COSMOS 1553

International designator: 1984-046A

Object number (NORAD): 14973

Object ID (CCSDS): 14973

Country: COMMONWEALTH OF INDEPENDENT STATES (CIS)

Current information (Y/N): Y

RCS size: LARGE

Orbital parameters

Period: 104.683 minutes

Inclination: 82.9368 deg

SMA: 7357.746 km

Apoapsis: 1003.635 km

Periapsis: 955.587 km

RAAN: 148.8621 deg

Eccentricy: 0.0032651

Argument of periapsis: 156.1517 deg

Mean anomaly: 316.448 deg

Mean motion: 13.75579143 rev/day

Mean motion (dot): 0.00000076 rev/day2

B* drag term: 0.000062206 1/REarth

Two-line elements (TLE)

Creation date: July 6, 2025, 6:05 p.m.

Reference frame: TEME

Reference center: EARTH

Epoch: July 6, 2025, 9:21 a.m. UTC

TLE line 0: 0 COSMOS 1553

TLE line 1: 1 14973U 84046A 25187.39010330 .00000076 00000-0 62206-4 0 9991

TLE line 2: 2 14973 82.9368 148.8621 0032651 156.1517 316.4480 13.75579143 64185

Live tracking on map

Real-time ground track for satellite COSMOS 1553.

In-orbit conjunctions

There are no conjunctions computed for COSMOS 1553, at the moment. Check back to stay up to date, as we update our databases every day.

Go to all conjunctions

Associated space launch

Civilian navigation satellite equivalent to the purely military Parus

COSMOS 1553 was lifted into orbit during the mission ‘Kosmos-3M | Tsikada 11’, on board a Kosmos-3M space rocket.

The launch took place on May 17, 1984, 2:43 p.m. from 132/1 (132L).

For more information about the launch, click the button.

Launch to space Kosmos-3M | Tsikada 11
Kosmos-3M | Tsikada 11

Agency: N/A

Status: Launch Successful

Launch date: May 17, 1984, 2:43 p.m. UTC

Rocket: Kosmos-3M

Launch pad: 132/1 (132L)

Location: Plesetsk Cosmodrome, Russian Federation

...

Latest news about this satellite

There are no fresh news available about this satellite. Check back as we update our databases every day.


Newsletter sign-up

Weekly statistics, charts and insights to help you stay on top of the space industry.